Retour au catalogue

STARLINK-6289

ActifCommunicationsVLEO
NORAD 56408·PAYLOAD·🇺🇸 United States

Lancé May 4, 2023 depuis Cape Canaveral Space Force Station

Loading…

Prochains Passages (prochaines 24 heures)

TLE

FraisSource: CelesTrak SupGP

Époque: Sep 15, 2026, 02:47 UTC

1 56408C 23061AL  26258.11645833 -.00022545  00000+0 -81670-3 0  2581
2 56408  43.0028 196.9325 0001217 271.4044 268.4217 15.27584944    10

Suivez STARLINK-6289 en temps réel avec AllMySat

Download on the App Store